Weather observations for the past three days for
Wichita - Wichita Dwight D. Eisenhower National Airport
Imperial (Metric)
Date Time (cdt) Wind (mph) Vis. (mi.) Weather Sky Cond. Temperature (ºF) Relative Humidity Wind Chill (°F) Heat Index (°F) Pressure Precipitation (in)
Air Dwpt 6 hour altimeter (in) sea level (mb) 1 hr 3 hr 6 hr
Max. Min.
15 12:53 SW 14 10.00 Partly Cloudy FEW150 FEW190 SCT250 97 69.1 97 75 40% 103 29.86 1009.1
15 11:53 SW 15 G 22 10.00 Partly Cloudy FEW150 SCT190 SCT250 95 68 41% 100 29.87 1009.5
15 10:53 S 14 10.00 A Few Clouds FEW150 FEW190 91 69.1 49% 96 29.87 1009.6
15 09:53 S 17 10.00 A Few Clouds FEW150 FEW180 FEW250 87.1 69.1 55% 91 29.87 1009.5
15 08:53 S 17 10.00 A Few Clouds FEW180 82.9 69.1 63% 87 29.88 1010.0
15 07:53 S 14 10.00 A Few Clouds FEW180 79 69.1 72% 82 29.89 1010.2
15 06:53 S 9 10.00 A Few Clouds FEW150 FEW180 75 69.1 82.9 75 82% 75 29.89 1010.4
15 05:53 S 8 10.00 A Few Clouds FEW180 FEW250 75 70 84% 75 29.89 1010.2
15 04:53 S 8 10.00 A Few Clouds FEW250 75.9 70 82% 77 29.89 1010.2
15 03:53 S 9 10.00 A Few Clouds FEW250 77 71.1 82% 79 29.89 1010.3
15 02:53 S 12 10.00 A Few Clouds FEW250 80.1 71.1 74% 84 29.9 1010.6
15 01:53 S 10 10.00 A Few Clouds FEW250 81 71.1 72% 85 29.92 1011.3
15 00:53 S 13 10.00 A Few Clouds FEW250 82.9 72 98.1 82.9 70% 88 29.93 1011.7
14 23:53 S 12 10.00 A Few Clouds FEW250 84 72 67% 90 29.93 1011.6
14 22:53 S 15 10.00 A Few Clouds FEW250 86 71.1 61% 92 29.91 1011.0
14 21:53 S 9 10.00 A Few Clouds FEW240 87.1 68 53% 91 29.9 1010.5
14 20:53 S 12 10.00 A Few Clouds FEW240 89.1 66.9 48% 92 29.89 1010.3
14 19:53 S 9 10.00 Fair CLR 93.9 66.9 41% 98 29.89 1010.3
14 18:53 S 15 10.00 Fair CLR 98.1 64.9 102 96.1 34% 101 29.89 1010.3
14 17:53 SW 14 G 24 10.00 Fair CLR 100.9 63 29% 103 29.9 1010.5
14 16:53 S 20 G 28 10.00 Fair CLR 102 61 26% 103 29.91 1010.8
14 15:53 S 21 G 28 10.00 Fair and Breezy CLR 102 63 28% 104 29.92 1011.2
14 14:53 S 16 G 25 10.00 Fair CLR 100 66 33% 104 29.94 1011.9
14 13:53 S 17 10.00 A Few Clouds FEW240 98.1 68 38% 103 29.96 1012.6
14 12:53 S 16 G 26 10.00 A Few Clouds FEW200 95 69.1 95 75.9 43% 101 29.98 1013.4
14 11:53 S 13 10.00 Partly Cloudy FEW150 SCT200 91.9 71.1 51% 99 29.99 1013.7
14 10:53 SW 14 10.00 Partly Cloudy FEW120 FEW170 SCT200 89.1 71.1 55% 95 30.01 1014.4
14 09:53 S 17 10.00 Partly Cloudy FEW120 SCT170 SCT210 84 71.1 65% 89 30 1014.3
14 08:53 S 13 10.00 Partly Cloudy FEW110 SCT160 SCT220 78.1 70 76% 80 30.02 1014.8
14 07:53 S 14 G 21 10.00 Mostly Cloudy SCT060 SCT100 BKN150 BKN200 75.9 69.1 79% 77 30.02 1014.8
14 06:53 S 9 10.00 Mostly Cloudy SCT060 BKN120 BKN200 75.9 69.1 81 75.9 79% 77 30.02 1014.7
14 05:53 S 17 10.00 Mostly Cloudy FEW090 BKN150 BKN250 77 68 74% 79 29.99 1013.8
14 04:53 S 12 10.00 Mostly Cloudy SCT150 BKN250 77 68 74% 79 30.01 1014.3
14 03:53 S 12 10.00 Partly Cloudy FEW080 SCT230 77 68 74% 79 30.01 1014.5
14 02:53 S 15 10.00 A Few Clouds FEW080 FEW200 79 68 69% 81 30.01 1014.2
14 01:53 S 16 10.00 A Few Clouds FEW180 80.1 68 67% 83 30.02 1014.8
14 00:53 S 14 10.00 A Few Clouds FEW180 80.1 66.9 91.9 80.1 64% 82 30.03 1015.1
13 23:53 S 15 10.00 A Few Clouds FEW220 82 66.9 60% 85 30.03 1015.2
13 22:53 S 17 10.00 Partly Cloudy SCT220 82.9 68 61% 86 30.04 1015.4
13 21:53 S 13 10.00 Partly Cloudy SCT180 SCT220 82.9 66.9 59% 86 30.02 1015.0
13 20:53 S 14 10.00 Partly Cloudy SCT160 SCT210 86 66.9 53% 89 30 1014.3
13 19:53 S 12 10.00 Partly Cloudy SCT160 SCT220 90 64.9 44% 92 30.01 1014.5
13 18:53 S 18 10.00 Partly Cloudy SCT160 SCT220 91 63 97 89.1 39% 92 30.01 1014.5
13 17:53 S 20 10.00 Partly Cloudy SCT160 SCT240 95 64 36% 97 30.02 1014.6
13 16:53 S 24 G 36 10.00 Partly Cloudy and Breezy SCT140 SCT240 97 64 34% 99 30.02 1014.6
13 15:53 S 22 G 35 10.00 Mostly Cloudy and Breezy BKN160 BKN210 95 66.9 40% 99 30.02 1014.9
13 14:53 S 20 G 30 10.00 Mostly Cloudy FEW120 BKN160 BKN220 96.1 69.1 41% 102 30.05 1015.7
13 13:53 S 24 G 33 10.00 Mostly Cloudy and Breezy FEW120 BKN150 BKN200 93.9 69.1 44% 99 30.05 1015.9
13 12:53 S 17 10.00 Mostly Cloudy FEW110 BKN150 BKN200 89.1 70 90 75 53% 94 30.07 1016.3 0.01
13 11:53 S 15 10.00 Mostly Cloudy FEW090 BKN140 BKN200 86 70 59% 91 30.08 1016.7
13 09:53 S 20 G 25 10.00 Mostly Cloudy FEW070 SCT120 BKN190 81 69.1 67% 84 30.08 1016.9 0.01
13 08:53 S 17 10.00 Mostly Cloudy SCT060 SCT080 BKN120 BKN190 79 66.9 67% 81 30.07 1016.6
13 07:53 S 17 10.00 Mostly Cloudy SCT060 SCT075 SCT110 BKN180 79 66.9 67% 81 30.06 1016.2 0.01
13 06:53 S 14 10.00 Light Rain SCT050 SCT090 BKN120 BKN170 75.9 66.9 81 75.9 74% 77 30.05 1015.6
13 05:53 S 6 10.00 Thunderstorm FEW080CB BKN140 BKN220 75.9 66 72% 77 30.04 1015.3
13 04:53 S 13 10.00 Mostly Cloudy SCT140 BKN210 77 66 69% 79 30.02 1014.7
13 03:53 S 12 10.00 Partly Cloudy SCT170 75.9 66.9 74% 77 30 1014.2
13 02:53 S 10 10.00 Mostly Cloudy SCT170 BKN220 77 68 74% 79 30 1013.9
13 01:53 S 12 10.00 Partly Cloudy SCT210 80.1 68 67% 83 30 1013.9
13 00:53 S 12 10.00 Partly Cloudy FEW160 SCT220 81 69.1 96.1 81 67% 84 30.01 1014.3
12 23:53 S 13 10.00 Mostly Cloudy FEW160 BKN210 84 68 59% 87 30 1014.1
12 22:53 S 16 10.00 Mostly Cloudy BKN210 84.9 68 57% 88 29.99 1013.8
12 21:53 S 12 10.00 Partly Cloudy SCT140 SCT210 86 68 55% 89 29.97 1013.1
12 20:53 S 15 10.00 A Few Clouds FEW140 FEW190 FEW250 90 66.9 47% 93 29.95 1012.4
12 19:53 S 13 10.00 A Few Clouds FEW140 FEW190 FEW250 91.9 66.9 44% 95 29.93 1011.9
12 18:53 S 14 10.00 Mostly Cloudy BKN140 BKN250 96.1 66.9 99 91.9 39% 100 29.92 1011.5
12 17:53 S 15 10.00 Mostly Cloudy BKN140 BKN250 97 64.9 35% 100 29.92 1011.3
12 16:53 S 16 10.00 Partly Cloudy SCT150 SCT200 SCT250 98.1 63 32% 100 29.93 1011.6
12 15:53 S 18 G 25 10.00 Mostly Cloudy BKN150 BKN200 BKN250 98.1 64.9 34% 101 29.93 1011.8
12 14:53 S 13 10.00 Partly Cloudy FEW120 SCT150 SCT200 SCT250 98.1 64.9 34% 101 29.95 1012.4
12 13:53 SE 14 10.00 Partly Cloudy FEW120 SCT150 SCT190 96.1 66.9 39% 100 29.96 1012.8
Date Time (cdt) Wind (mph) Vis. (mi.) Weather Sky Cond. Air Dwpt Max. Min. Relative Humidity Wind Chill (°F) Heat Index (°F) altimeter (in) sea level (mb) 1 hr 3 hr 6 hr
6 hour
Temperature (ºF) Pressure Precipitation (in)